When you browse on this site, cookies collect data to enhance your experience and personalize the content and advertising you see.
Visit our Privacy Policy to learn more. By continuing to use the site, you agree to this use of cookies and data.
  • In United Kingdom
  • List of Countries
  • For 7 days
  • Water Temperature
  • Satellite Maps
  • Weather Map
  • Weather Widgets
  • user-avatar
    Login

    Hourly Weather Bekescsaba

    Today, 25 April, Thursday

    Time Temperature Precipitation Wind Pressure Humidity
    00:00 +13°C° 0.2 mm 4 mps 756 mmHg 79%
    01:00 +13°C° 0 mm 3 mps 756 mmHg 82%
    02:00 +12°C° 0.4 mm 3 mps 756 mmHg 84%
    03:00 +12°C° 0.4 mm 3 mps 757 mmHg 86%
    04:00 +11°C° 0.4 mm 4 mps 757 mmHg 88%
    05:00 +12°C° 0.1 mm 4 mps 757 mmHg 84%
    06:00 +13°C° 0.1 mm 5 mps 757 mmHg 80%
    07:00 +15°C° 0 mm 5 mps 757 mmHg 75%
    08:00 +17°C° 0 mm 5 mps 757 mmHg 71%
    09:00 +19°C° 0 mm 5 mps 757 mmHg 66%
    10:00 +21°C° 0 mm 5 mps 757 mmHg 62%
    11:00 +22°C° 0 mm 5 mps 757 mmHg 58%
    12:00 +25°C° 0 mm 5 mps 757 mmHg 54%
    13:00 +26°C° 0 mm 4 mps 757 mmHg 51%
    14:00 +26°C° 0 mm 4 mps 756 mmHg 51%
    15:00 +26°C° 0 mm 4 mps 756 mmHg 51%
    16:00 +26°C° 0 mm 4 mps 756 mmHg 51%
    17:00 +23°C° 0 mm 4 mps 756 mmHg 58%
    18:00 +22°C° 0 mm 3 mps 755 mmHg 64%
    19:00 +20°C° 0 mm 3 mps 755 mmHg 71%
    20:00 +19°C° 0 mm 3 mps 755 mmHg 73%
    21:00 +18°C° 0 mm 3 mps 756 mmHg 75%
    22:00 +17°C° 0 mm 4 mps 756 mmHg 77%
    23:00 +17°C° 0 mm 4 mps 756 mmHg 77%

    Tomorrow, 26 April, Friday

    Time Temperature Precipitation Wind Pressure Humidity
    00:00 +16°C° 0 mm 3 mps 756 mmHg 78%
    01:00 +16°C° 0 mm 3 mps 756 mmHg 78%
    02:00 +14°C° 0.4 mm 3 mps 755 mmHg 80%
    03:00 +14°C° 0.4 mm 3 mps 755 mmHg 82%
    04:00 +13°C° 0.4 mm 3 mps 755 mmHg 84%
    05:00 +15°C° 0 mm 4 mps 755 mmHg 80%
    06:00 +16°C° 0 mm 5 mps 755 mmHg 76%
    07:00 +17°C° 0 mm 5 mps 755 mmHg 72%
    08:00 +20°C° 0 mm 5 mps 755 mmHg 68%
    09:00 +22°C° 0 mm 5 mps 755 mmHg 64%
    10:00 +25°C° 0 mm 5 mps 754 mmHg 60%
    11:00 +26°C° 0 mm 5 mps 754 mmHg 56%
    12:00 +27°C° 0 mm 5 mps 753 mmHg 53%
    13:00 +28°C° 0 mm 5 mps 753 mmHg 49%
    14:00 +28°C° 0 mm 5 mps 753 mmHg 50%
    15:00 +28°C° 0 mm 4 mps 752 mmHg 51%
    16:00 +28°C° 0 mm 4 mps 752 mmHg 52%
    17:00 +26°C° 0 mm 4 mps 752 mmHg 57%
    18:00 +24°C° 0 mm 3 mps 751 mmHg 61%
    19:00 +21°C° 0 mm 3 mps 751 mmHg 66%
    20:00 +21°C° 0 mm 3 mps 751 mmHg 68%
    21:00 +20°C° 0 mm 3 mps 751 mmHg 71%
    22:00 +19°C° 0 mm 3 mps 752 mmHg 73%
    23:00 +18°C° 0.7 mm 3 mps 751 mmHg 77%

    Day after tomorrow, 27 April, Saturday

    Time Temperature Precipitation Wind Pressure Humidity
    00:00 +18°C° 0.7 mm 2 mps 751 mmHg 82%
    01:00 +17°C° 0.7 mm 2 mps 751 mmHg 86%
    02:00 +17°C° 0.4 mm 2 mps 751 mmHg 88%
    03:00 +16°C° 0.4 mm 2 mps 751 mmHg 91%
    04:00 +16°C° 0.4 mm 1 mps 751 mmHg 93%
    05:00 +16°C° 0.3 mm 2 mps 752 mmHg 92%
    06:00 +16°C° 0.3 mm 2 mps 752 mmHg 90%
    07:00 +14°C° 0.3 mm 3 mps 752 mmHg 89%
    08:00 +14°C° 0.4 mm 3 mps 752 mmHg 87%
    09:00 +14°C° 0.4 mm 3 mps 752 mmHg 86%
    10:00 +14°C° 0.4 mm 3 mps 752 mmHg 85%
    11:00 +14°C° 0.5 mm 3 mps 752 mmHg 84%
    12:00 +14°C° 0.5 mm 3 mps 752 mmHg 84%
    13:00 +13°C° 0.5 mm 3 mps 752 mmHg 84%
    14:00 +13°C° 0 mm 3 mps 752 mmHg 84%
    15:00 +13°C° 0 mm 3 mps 752 mmHg 85%
    16:00 +13°C° 0 mm 3 mps 751 mmHg 85%
    17:00 +13°C° 0 mm 3 mps 751 mmHg 86%
    18:00 +13°C° 0 mm 2 mps 752 mmHg 87%
    19:00 +13°C° 0 mm 2 mps 752 mmHg 88%
    20:00 +13°C° 0 mm 2 mps 752 mmHg 89%
    21:00 +13°C° 0 mm 2 mps 752 mmHg 89%
    22:00 +11°C° 0 mm 3 mps 752 mmHg 89%
    23:00 +11°C° 0 mm 3 mps 752 mmHg 89%

    28 April, Sunday

    Time Temperature Precipitation Wind Pressure Humidity
    00:00 +11°C° 0 mm 3 mps 752 mmHg 88%
    01:00 +11°C° 0 mm 3 mps 752 mmHg 88%
    02:00 +10°C° 0 mm 3 mps 751 mmHg 87%
    03:00 +10°C° 0 mm 3 mps 751 mmHg 87%
    04:00 +10°C° 0 mm 3 mps 751 mmHg 87%
    05:00 +10°C° 0.2 mm 3 mps 751 mmHg 87%
    06:00 +12°C° 0.2 mm 2 mps 752 mmHg 86%
    07:00 +12°C° 0.2 mm 2 mps 752 mmHg 86%
    08:00 +13°C° 0.1 mm 2 mps 752 mmHg 84%
    09:00 +14°C° 0.1 mm 2 mps 752 mmHg 83%
    10:00 +15°C° 0.1 mm 2 mps 752 mmHg 81%
    11:00 +15°C° 0.4 mm 2 mps 752 mmHg 82%
    12:00 +14°C° 0.4 mm 3 mps 752 mmHg 83%
    13:00 +14°C° 0.4 mm 3 mps 752 mmHg 83%
    14:00 +15°C° 0 mm 2 mps 752 mmHg 79%
    15:00 +16°C° 0 mm 2 mps 751 mmHg 74%
    16:00 +16°C° 0 mm 2 mps 751 mmHg 70%
    17:00 +15°C° 0 mm 2 mps 751 mmHg 76%
    18:00 +14°C° 0 mm 2 mps 751 mmHg 82%
    19:00 +12°C° 0 mm 2 mps 751 mmHg 88%
    20:00 +12°C° 0 mm 1 mps 751 mmHg 89%
    21:00 +11°C° 0 mm 1 mps 751 mmHg 90%
    22:00 +11°C° 0 mm 1 mps 752 mmHg 91%
    23:00 +11°C° 0 mm 1 mps 752 mmHg 91%

    29 April, Monday

    Time Temperature Precipitation Wind Pressure Humidity
    00:00 +10°C° 0 mm 1 mps 751 mmHg 91%
    01:00 +10°C° 0 mm 1 mps 751 mmHg 91%
    02:00 +10°C° 0 mm 1 mps 751 mmHg 90%
    03:00 +9°C° 0 mm 1 mps 751 mmHg 90%
    04:00 +9°C° 0 mm 1 mps 751 mmHg 89%
    05:00 +9°C° 0 mm 0 mps 751 mmHg 84%
    06:00 +11°C° 0 mm 0 mps 751 mmHg 79%
    07:00 +12°C° 0 mm 0 mps 751 mmHg 74%
    08:00 +14°C° 0 mm 0 mps 751 mmHg 68%
    09:00 +18°C° 0 mm 1 mps 751 mmHg 63%
    10:00 +19°C° 0 mm 1 mps 751 mmHg 57%
    11:00 +20°C° 0.1 mm 1 mps 750 mmHg 55%
    12:00 +19°C° 0.1 mm 2 mps 750 mmHg 53%
    13:00 +20°C° 0.1 mm 2 mps 749 mmHg 50%
    14:00 +19°C° 0.4 mm 2 mps 749 mmHg 55%
    15:00 +19°C° 0.4 mm 2 mps 749 mmHg 60%
    16:00 +18°C° 0.4 mm 3 mps 748 mmHg 64%
    17:00 +17°C° 0.3 mm 3 mps 748 mmHg 73%
    18:00 +15°C° 0.3 mm 2 mps 748 mmHg 81%
    19:00 +14°C° 0.3 mm 2 mps 748 mmHg 89%
    20:00 +13°C° 0 mm 2 mps 748 mmHg 90%
    21:00 +12°C° 0 mm 2 mps 748 mmHg 91%
    22:00 +10°C° 0 mm 2 mps 748 mmHg 92%
    23:00 +10°C° 0 mm 2 mps 748 mmHg 92%

    30 April, Tuesday

    Time Temperature Precipitation Wind Pressure Humidity
    00:00 +10°C° 0 mm 2 mps 748 mmHg 92%
    01:00 +10°C° 0 mm 2 mps 748 mmHg 93%
    02:00 +10°C° 0 mm 2 mps 748 mmHg 94%
    03:00 +9°C° 0 mm 2 mps 748 mmHg 95%
    04:00 +9°C° 0 mm 2 mps 748 mmHg 96%
    05:00 +10°C° 0 mm 2 mps 748 mmHg 94%
    06:00 +10°C° 0 mm 2 mps 748 mmHg 92%
    07:00 +12°C° 0 mm 2 mps 748 mmHg 90%
    08:00 +11°C° 0.1 mm 3 mps 748 mmHg 89%
    09:00 +12°C° 0.1 mm 3 mps 748 mmHg 88%
    10:00 +12°C° 0.1 mm 3 mps 748 mmHg 87%
    11:00 +12°C° 0.5 mm 3 mps 748 mmHg 87%
    12:00 +12°C° 0.5 mm 4 mps 748 mmHg 87%
    13:00 +12°C° 0.5 mm 4 mps 748 mmHg 87%
    14:00 +12°C° 0.2 mm 4 mps 748 mmHg 86%
    15:00 +12°C° 0.2 mm 4 mps 748 mmHg 85%
    16:00 +12°C° 0.2 mm 4 mps 748 mmHg 85%
    17:00 +12°C° 0 mm 4 mps 748 mmHg 86%
    18:00 +11°C° 0 mm 4 mps 749 mmHg 86%
    19:00 +10°C° 0 mm 4 mps 749 mmHg 87%
    20:00 +8°C° 0 mm 4 mps 749 mmHg 88%
    21:00 +8°C° 0 mm 3 mps 749 mmHg 90%
    22:00 +7°C° 0 mm 3 mps 750 mmHg 91%
    23:00 +7°C° 0 mm 3 mps 750 mmHg 91%
    Show more